Preview of NWS' New Version of Forecast
This preview is not operational and should not be used for support decisions.

Regional Weather Roundup (RWR)

Issued by National Weather Service (NWS)

                            
000
ASUS42 KTBW 201918
RWRFL 
FLORIDA REGIONAL WEATHER ROUNDUP
NATIONAL WEATHER SERVICE TAMPA BAY RUSKIN FL
300 PM EDT SAT JUL 20 2019

NOTE: "FAIR" INDICATES FEW OR NO CLOUDS BELOW 12,000 FEET WITH NO
SIGNIFICANT WEATHER AND/OR OBSTRUCTIONS TO VISIBILITY.

FLZ001>010-012>015-112-114-115-202000-
PANHANDLE FLORIDA
  
CITY           SKY/WX    TMP DP  RH WIND       PRES   REMARKS
PENSACOLA      FAIR      83  74  74 S6        30.07F                  
PENSACOLA NAS  PTSUNNY   83  75  77 VRB6      30.07F                  
MILTON NAS     CLOUDY    83  73  72 VRB6      30.07F                  
CRESTVIEW      FAIR      87  70  56 S8        30.09F                  
DUKE FIELD     FAIR      84  71  64 S14       30.08F                  
VALPARAISO     FAIR      82  72  69 SW9       30.07F                  
MARY ESTHER    PTSUNNY   83  74  73 S9        30.06F                  
TRI COUNTY     FAIR      86  74  67 S9        30.08                   
PANAMA CITY    FAIR      84  71  65 S13G20    30.09F                  
TYNDALL AFB    PTSUNNY   83  72  67 W14       30.09F                  
APALACHICOLA   LGT RAIN  78  74  87 SW6       30.10F                  

STATION/POSITION SKY/WX   TEMP    WIND        PRES    WAVE   SWELL
                          AIR SEA DIR/SP/G            HT/PER HT/PER
                          (F)     (DEG/KT/KT) (MB)    (FT/S) (FT/S)
30.1N   87.6W              80 86  150/ 12/ 16 1018.2F   2/ 4
29.2N   88.2W              79 85  100/ 14/ 17 1018.1F   2/ 3
28.8N   86.0W                 86  340/ 14/ 17 1019.2F   2/ 4
PANAMA CITY BEAC           82 86  210/ 15/ 18 1020.0F
TOWER C                    78     170/  5/  6 1019.8F
28.5N   84.5W              83     280/ 16/ 23 1019.2F   2/ 4   2/ 4

$$
FLZ011-016>038-118-127-128-134-139-239-202000-
NORTH FLORIDA
  
CITY           SKY/WX    TMP DP  RH WIND       PRES   REMARKS
MARIANNA       PTSUNNY   79  75  87 SW16G22   30.09S                  
TALLAHASSEE    FAIR      91  74  57 S10       30.06F HX 100           
PERRY          TSTM      76  73  91 CALM      30.09F                  
LIVE OAK       SUNNY     91  72  52 S3        30.06F HX  98           
CROSS CITY     PTSUNNY   92  74  56 S3        30.06F HX 101           
LAKE CITY      FAIR      90  70  51 W6        30.06F HX  95           
GAINESVILLE    FAIR      91  71  51 CALM      30.08F HX  97           
WILLISTON      FAIR      93  73  53 W5        30.05F HX 101           
PALATKA        FAIR      93  75  55 E7        30.05F HX 104           
MAYPORT NAS    FAIR      89  76  65 E10       30.06F HX 100           
JACKSONVILLE   PTSUNNY   94  72  48 CALM      30.04F THUNDER HX 102   
JAX NAS        FAIR      94  70  45 VRB7      30.05F HX 100           
JAX CECIL      PTSUNNY   97  72  44 VRB3      30.05F HX 105           
FERNANDINA BEA FAIR      88  77  71 E7        30.07F HX 100           
ST AUGUSTINE   FAIR      89  76  65 SE15      30.07F HX 100           
PALM COAST     PTSUNNY   88  75  66 E7        30.07F HX  97           

STATION/POSITION SKY/WX   TEMP    WIND        PRES    WAVE   SWELL
                          AIR SEA DIR/SP/G            HT/PER HT/PER
                          (F)     (DEG/KT/KT) (MB)    (FT/S) (FT/S)
SHELL POINT      NOT AVBL
KEATON BEACH               83     260/ 10/ 12 1018.6F
CEDAR KEY                  87     250/  4/  6 1018.3F
FERNANDINA                 92 85  100/  4/  9 1019.4
30.7N   81.3W                 85                N/A     1/ 9
MAYPORT                    86 83  110/  6/  9 1019.0
31.4N   80.9W              82 85  190/ 10/ 12 1018.4F   2/ 9   2/ 9
ST AUGUSTINE               82 80  130/ 10/ 10 1018.3F

$$
FLZ040-043>046-052-053-057-058-063-144-202000-
INTERIOR CENTRAL FLORIDA
  
CITY           SKY/WX    TMP DP  RH WIND       PRES   REMARKS
OCALA          FAIR      92  73  53 CALM      30.06F HX 100           
LEESBURG       FAIR      94  71  47 VRB5      30.06F HX 101           
SANFORD        FAIR      91  72  53 SE8       30.06F HX  98           
ORLANDO EXEC   FAIR      89  70  53 E7        30.06F                  
ORLANDO INTL   PTSUNNY   88  72  58 SE10      30.07S THUNDER          
KISSIMMEE      TSTM      79  72  78 SE9G25    30.11R                  
WINTER HAVEN   FAIR      93  71  48 E6        30.06F HX 100           
LAKELAND       MOSUNNY   90  68  48 CALM      30.06F                  
BARTOW         PTSUNNY   93  72  49 E5        30.04F HX 100           
SEBRING        FAIR      85  68  55 NE16      30.05F                  
OKEECHOBEE     TSTM      79  77  94 E7        30.06F                  

$$
FLZ041-047-054-059-064-141-147-202000-
EAST CENTRAL FLORIDA
  
CITY           SKY/WX    TMP DP  RH WIND       PRES   REMARKS
ORMOND BEACH   MOSUNNY   88  77  70 SE8       30.08S HX 100           
DAYTONA BEACH  PTSUNNY   87  79  76 SE7       30.07F HX 101           
DELAND         FAIR      88  75  66 SE5       30.06F HX  97           
NEW SMYRNA BEA MOSUNNY   88  75  66 SE8       30.08F HX  97           
JFK SPACE CTR  MOSUNNY   90  65  43 E7        30.06F                  
TITUSVILLE     MOSUNNY   93  73  52 VRB6      30.08F HX 102           
CAPE CANAVERAL SUNNY     89  54  30 E9        30.06F                  
PATRICK AFB    FAIR      86  78  75 E9        30.07F HX  98           
MELBOURNE      FAIR      86  73  65 E10       30.06F                  
VERO BEACH     FAIR      84  75  74 E7        30.07F                  
FT PIERCE      FAIR      87  76  69 E7        30.06F HX  97           
STUART         MOSUNNY   86  73  66 SE12G17   30.08                   

STATION/POSITION SKY/WX   TEMP    WIND        PRES    WAVE   SWELL
                          AIR SEA DIR/SP/G            HT/PER HT/PER
                          (F)     (DEG/KT/KT) (MB)    (FT/S) (FT/S)
28.5N   80.2W              83 84   CALM  /  2 1018.7F   2/ 9   2/ 9
28.9N   78.5W              85 87  160/  8/ 12   N/A
TRIDENT PIER               88 82   80/  7/ 10 1020.4
28.4N   80.5W                 83                N/A     1/ 9
27.5N   80.2W                 83                N/A     2/ 4

$$
FLZ050-056-061-142-242-148-248-149-249-151-251-155-255-
160-260-202000-
WEST CENTRAL FLORIDA
  
CITY           SKY/WX    TMP DP  RH WIND       PRES   REMARKS
CRYSTAL RIVER  PTSUNNY   82  73  74 NW5       30.06F THUNDER          
INVERNESS      FAIR      91  73  55 CALM      30.05F HX 100           
BROOKSVILLE    FAIR      92  73  53 SE5       30.05F HX 100           
CLEARWATER AIR FAIR      88  73  62 W7        30.05F HX  96           
ST PETE CLEARW FAIR      90  73  57 NE8       30.04F HX  98           
TAMPA INTL     FAIR      90  74  59 SW8       30.05F HX  99           
TAMPA EXEC     PTSUNNY   91  72  52 CALM      30.05F HX  98           
PLANT CITY     FAIR     N/A N/A N/A MISG      30.07F                  
MACDILL AFB    FAIR      90  74  58 SE6       30.05F HX  99           
PETER O KNIGHT CLOUDY    91  73  55 SW6       30.05F HX 100           
ST PETERSBURG  FAIR      90  73  57 E3        30.03F HX  98           
SARASOTA       FAIR      90  75  61 SW9       30.03F HX 100           
VENICE         FAIR      91  77  62 W9        30.04F HX 105           

STATION/POSITION SKY/WX   TEMP    WIND        PRES    WAVE   SWELL
                          AIR SEA DIR/SP/G            HT/PER HT/PER
                          (F)     (DEG/KT/KT) (MB)    (FT/S) (FT/S)
27.3N   84.2W                 87                N/A     2/ 4
CLEARWATER BEACH           85 88  220/  9/ 11 1018.2F
MIDDLE TAMPA BAY           86     290/  6/  7 1018.1F
VENICE                     87 86  260/  7/  8 1017.1F

$$
FLZ066-069-070-075>078-162-262-165-265-202000-
SOUTHWEST FLORIDA AND KEYS
  
CITY           SKY/WX    TMP DP  RH WIND       PRES   REMARKS
PUNTA GORDA    PTSUNNY   90  74  59 NE12      30.04F THUNDER HX  99   
FT MYERS       TSTM      76  70  82 SW6G17    30.04S                  
SOUTHWEST INTL TSTM      77  71  82 W9        30.05R                  
MARCO ISLAND   TSTM      78  75  90 MISG      30.07R                  
IMMOKALEE      FAIR      79  75  89 SE5       30.03F                  
MARATHON       FAIR      92  77  61 SE8       30.04S HX 105           
KEY WEST NAS   PTSUNNY   92  76  59 SE10      30.03F HX 104           
KEY WEST INTL  FAIR      89  76  65 SE10      30.03F HX 100           

STATION/POSITION SKY/WX   TEMP    WIND        PRES    WAVE   SWELL
                          AIR SEA DIR/SP/G            HT/PER HT/PER
                          (F)     (DEG/KT/KT) (MB)    (FT/S) (FT/S)
NAPLES                     77 87              1019.0
26.0N   85.6W              85 86  110/  6/  8 1017.8F   2/ 5   2/ 5
DRY TORTUGAS               85      60/  8/  9 1017.2F
SAND KEY                   85     100/  5/  9 1015.9F
SOMBRERO KEY               85     120/  8/ 10 1017.6F
LONG KEY                   86                 1016.6

$$
FLZ067-068-071>074-168-172>174-202000-
SOUTHEAST FLORIDA 
  
CITY           SKY/WX    TMP DP  RH WIND       PRES   REMARKS
W PALM BEACH   PTSUNNY   88  73  61 SE8       30.06F HX  95           
BOCA RATON     MOSUNNY   91  75  59 E12       30.06F HX 102           
FT LAUDER-EXEC FAIR      89  75  63 E13       30.05F HX  99           
FT LAUDERDALE  PTSUNNY   88  76  67 SE12      30.05F HX  99           
POMPANO BEACH  PTSUNNY   90  73  57 SE10      30.05F HX  98           
PEMBROKE PINES FAIR      90  73  57 SE14      30.06F HX  98           
OPA LOCKA      FAIR      87  74  64 SE13      30.06S HX  95           
MIAMI          PTSUNNY   88  75  65 SE13G18   30.05F HX  97           
WEST KENDALL   CLOUDY    88  75  65 SE13      30.05S HX  97           
HOMESTEAD        N/A     89  77  67 E9        30.05R HX 100           

STATION/POSITION SKY/WX   TEMP    WIND        PRES    WAVE   SWELL
                          AIR SEA DIR/SP/G            HT/PER HT/PER
                          (F)     (DEG/KT/KT) (MB)    (FT/S) (FT/S)
VIRGINIA KEY               85 88  120/ 12/ 15 1017.5R
LAKE WORTH                 83 84  120/  9/ 11 1019.2
FOWEY ROCKS                83 85  110/ 12/ 13 1018.2R
SETTLEMENT POINT           87     170/ 10/ 13